FW1304 Weather Reports


Display with metric or nautical units.
time (UTC)temp
F
wind
direction
speed
MPH
gust
MPH
rain 1hr
in
rain 24hr
in
rain mn
in
humidity
%
barometer
mb
20260507042821 41 257 0.0 0.0 0.00 0.00 0.00 57 1012.3
20260507042340 41 257 0.0 0.0 0.00 0.00 0.00 57 1012.3
20260507041826 41 256 0.0 0.0 0.00 0.00 0.00 57 1012.3
20260507041322 41 259 0.0 0.0 0.00 0.00 0.00 58 1012.4
20260507040839 42 259 0.0 0.0 0.00 0.00 0.00 57 1012.4
20260507040326 42 259 0.0 0.0 0.00 0.00 0.00 56 1012.4
20260507035830 42 256 0.0 0.0 0.00 0.00 0.00 55 1012.5
20260507035326 42 256 0.0 0.0 0.00 0.00 0.00 55 1012.5
20260507034834 42 256 0.0 0.0 0.00 0.00 0.00 55 1012.5
20260507034316 42 256 0.0 0.0 0.00 0.00 0.00 55 1012.5
20260507033849 42 256 0.0 0.0 0.00 0.00 0.00 55 1012.5
20260507033324 42 256 0.0 0.0 0.00 0.00 0.00 54 1012.5
20260507032826 42 256 0.0 0.0 0.00 0.00 0.00 54 1012.5
20260507032343 42 256 0.0 0.0 0.00 0.00 0.00 53 1012.5
20260507031829 42 254 0.0 0.0 0.00 0.00 0.00 53 1012.5
20260507031358 42 254 0.0 0.0 0.00 0.00 0.00 52 1012.6
20260507030825 42 263 0.0 0.0 0.00 0.00 0.00 52 1012.6
20260507030342 42 261 0.0 0.0 0.00 0.00 0.00 51 1012.6
20260507025823 43 261 0.0 0.0 0.00 0.00 0.00 51 1012.5
20260507025340 43 261 0.0 0.0 0.00 0.00 0.00 51 1012.6
20260507024847 43 261 0.0 0.0 0.00 0.00 0.00 51 1012.6
20260507024359 43 261 0.0 0.0 0.00 0.00 0.00 51 1012.6
20260507023825 43 267 0.0 0.0 0.00 0.00 0.00 50 1012.6
20260507023321 43 265 0.0 0.0 0.00 0.00 0.00 50 1012.6
20260507022824 43 275 0.0 0.0 0.00 0.00 0.00 50 1012.5
20260507022327 43 284 0.0 0.0 0.00 0.00 0.00 49 1012.5
20260507021823 43 288 0.0 0.0 0.00 0.00 0.00 50 1012.6
20260507021325 43 255 0.0 0.0 0.00 0.00 0.00 49 1012.6
20260507020823 43 290 0.0 0.0 0.00 0.00 0.00 49 1012.6
20260507020339 43 293 0.0 0.0 0.00 0.00 0.00 49 1012.6
20260507015813 43 268 0.0 0.0 0.00 0.00 0.00 49 1012.6
20260507015329 43 288 0.0 0.0 0.00 0.00 0.00 49 1012.5
20260507014828 43 261 0.0 0.0 0.00 0.00 0.00 49 1012.6
20260507014326 43 253 0.0 0.0 0.00 0.00 0.00 49 1012.5
20260507013903 43 266 0.0 0.0 0.00 0.00 0.00 49 1012.5
20260507013349 44 267 0.0 0.0 0.00 0.00 0.00 49 1012.5
20260507012859 44 286 0.0 0.0 0.00 0.00 0.00 48 1012.5
20260507012327 44 286 0.0 0.0 0.00 0.00 0.00 48 1012.5
20260507011823 44 275 0.0 0.0 0.00 0.00 0.00 48 1012.5
20260507011340 44 262 0.0 0.0 0.00 0.00 0.00 48 1012.5
20260507010835 44 306 0.0 0.0 0.00 0.00 0.00 48 1012.5
20260507010323 44 323 0.0 0.0 0.00 0.00 0.00 47 1012.5
20260507005820 45 290 0.0 1.0 0.00 0.00 0.00 49 1012.6
20260507005316 45 298 0.0 1.0 0.00 0.00 0.00 48 1012.6
20260507004824 45 306 0.0 2.0 0.00 0.00 0.00 47 1012.6
20260507004330 45 238 0.0 2.0 0.00 0.00 0.00 47 1012.6
20260507003818 45 309 0.0 1.0 0.00 0.00 0.00 48 1012.6
20260507003334 45 279 0.0 4.0 0.00 0.00 0.00 48 1012.7
20260507002836 45 314 0.0 4.0 0.00 0.00 0.00 47 1012.7
20260507002323 45 330 0.0 4.0 0.00 0.00 0.00 47 1012.7
20260507001820 45 263 0.0 4.0 0.00 0.00 0.00 47 1012.7
20260507001322 45 253 0.0 2.0 0.00 0.00 0.00 48 1012.7
20260507000829 45 261 0.0 6.0 0.00 0.00 0.00 47 1012.8
20260507000325 45 284 0.0 6.0 0.00 0.00 0.00 47 1012.8
20260506235827 45 267 0.0 1.0 0.00 0.00 0.00 47 1012.7
20260506235315 45 292 0.0 1.0 0.00 0.00 0.00 47 1012.7
20260506234831 45 259 0.0 4.0 0.00 0.00 0.00 47 1012.8
20260506234314 45 256 0.0 4.0 0.00 0.00 0.00 46 1012.8
20260506233821 45 263 0.0 4.0 0.00 0.00 0.00 46 1012.8
20260506233318 45 243 0.0 2.0 0.00 0.00 0.00 46 1012.8
20260506232837 45 271 0.0 1.0 0.00 0.00 0.00 47 1012.9
20260506232352 45 242 0.0 1.0 0.00 0.00 0.00 47 1013.0
20260506231846 45 277 0.0 2.0 0.00 0.00 0.00 46 1013.0
20260506231322 46 279 0.0 1.0 0.00 0.00 0.00 47 1013.1
20260506230839 46 284 0.0 0.0 0.00 0.00 0.00 47 1013.0
20260506230327 46 273 0.0 2.0 0.00 0.00 0.00 47 1013.0
20260506225833 45 311 0.0 4.0 0.00 0.00 0.00 47 1013.0
20260506225319 45 286 0.0 4.0 0.00 0.00 0.00 46 1013.0
20260506224836 45 265 0.0 3.0 0.00 0.00 0.00 47 1013.0
20260506224339 45 302 0.0 4.0 0.00 0.00 0.00 47 1013.0
20260506223846 45 307 0.0 4.0 0.00 0.00 0.00 47 1013.0
20260506223321 45 288 0.0 2.0 0.00 0.00 0.00 47 1013.1
20260506222823 45 325 0.0 1.0 0.00 0.00 0.00 47 1013.0
20260506222339 45 288 0.0 2.0 0.00 0.00 0.00 48 1013.1
20260506221827 45 327 0.0 2.0 0.00 0.00 0.00 47 1013.1
20260506221329 45 290 0.0 2.0 0.00 0.00 0.00 46 1013.1
20260506220817 45 307 0.0 2.0 0.00 0.00 0.00 47 1013.1
20260506220314 45 312 0.0 2.0 0.00 0.00 0.00 48 1013.2
20260506215829 45 248 0.0 2.0 0.00 0.00 0.00 47 1013.2
20260506215326 45 317 0.0 4.0 0.00 0.00 0.00 48 1013.2
20260506214813 45 263 0.0 4.0 0.00 0.00 0.00 48 1013.2
20260506214318 45 246 0.0 4.0 0.00 0.00 0.00 47 1013.3
20260506213835 45 308 0.0 1.0 0.00 0.00 0.00 47 1013.3
20260506213322 45 282 0.0 1.0 0.00 0.00 0.00 47 1013.3
20260506212817 45 310 0.0 2.0 0.00 0.00 0.00 49 1013.4
20260506212333 45 290 0.0 4.0 0.00 0.00 0.00 48 1013.4
20260506211849 45 272 1.0 4.0 0.00 0.00 0.00 48 1013.5
20260506211331 45 294 0.0 2.0 0.00 0.00 0.00 48 1013.5
20260506210828 45 260 0.0 5.0 0.00 0.00 0.00 48 1013.6
20260506210316 45 277 0.0 5.0 0.00 0.00 0.00 47 1013.6
20260506205818 45 297 0.0 5.0 0.00 0.00 0.00 48 1013.5
20260506205314 45 278 0.0 5.0 0.00 0.00 0.00 49 1013.7
20260506204831 45 296 0.0 5.0 0.00 0.00 0.00 48 1013.7
20260506204336 45 303 0.0 2.0 0.00 0.00 0.00 48 1013.7
20260506203823 45 217 0.0 4.0 0.00 0.00 0.00 47 1013.8
20260506203336 44 260 0.0 4.0 0.00 0.00 0.00 48 1013.8
20260506202839 44 232 0.0 2.0 0.00 0.00 0.00 48 1013.8
20260506202358 44 281 0.0 2.0 0.00 0.00 0.00 49 1013.9
20260506201823 44 257 0.0 4.0 0.00 0.00 0.00 48 1013.7
20260506201325 44 282 0.0 4.0 0.00 0.00 0.00 50 1013.9
20260506200842 44 296 0.0 4.0 0.00 0.00 0.00 49 1013.8
20260506200349 44 336 0.0 4.0 0.00 0.00 0.00 49 1013.8
20260506195832 44 304 0.0 5.0 0.00 0.00 0.00 48 1013.8
20260506195328 44 355 0.0 5.0 0.00 0.00 0.00 50 1013.9
20260506194816 44 317 0.0 4.0 0.00 0.00 0.00 50 1013.8
20260506194317 44 281 0.0 6.0 0.00 0.00 0.00 50 1013.8
20260506193815 44 323 1.0 6.0 0.00 0.00 0.00 50 1013.9
20260506193329 44 349 0.0 2.0 0.00 0.00 0.00 51 1013.8
20260506192814 43 281 0.0 4.0 0.00 0.00 0.00 52 1013.9
20260506192321 43 324 0.0 4.0 0.00 0.00 0.00 50 1013.9
20260506191838 43 273 0.0 2.0 0.00 0.00 0.00 52 1014.0
20260506191320 43 303 0.0 4.0 0.00 0.00 0.00 51 1014.0
20260506190832 43 291 0.0 4.0 0.00 0.00 0.00 52 1014.0
20260506190320 42 360 0.0 4.0 0.00 0.00 0.00 52 1014.0
20260506185816 42 330 0.0 4.0 0.00 0.00 0.00 51 1014.1
20260506185313 42 296 0.0 2.0 0.00 0.00 0.00 53 1014.1
20260506184820 42 355 0.0 4.0 0.00 0.00 0.00 52 1014.0
20260506184334 42 283 1.0 4.0 0.00 0.00 0.00 52 1014.2
20260506183821 42 318 0.0 2.0 0.00 0.00 0.00 53 1014.2
20260506183339 42 322 0.0 1.0 0.00 0.00 0.00 53 1014.1
20260506182813 42 298 0.0 2.0 0.00 0.00 0.00 52 1014.2
20260506182401 42 304 0.0 2.0 0.00 0.00 0.00 52 1014.2
20260506181846 42 294 0.0 1.0 0.00 0.00 0.00 53 1014.2
20260506181330 42 310 0.0 2.0 0.00 0.00 0.00 52 1014.3
20260506180846 42 271 0.0 6.0 0.00 0.00 0.00 52 1014.3
20260506180342 42 246 1.0 6.0 0.00 0.00 0.00 53 1014.2
20260506175825 42 287 0.0 2.0 0.00 0.00 0.00 52 1014.3
20260506175313 41 15 0.0 2.0 0.00 0.00 0.00 54 1014.3
20260506174830 41 280 0.0 2.0 0.00 0.00 0.00 53 1014.3
20260506174349 41 331 0.0 2.0 0.00 0.00 0.00 53 1014.4
20260506173844 41 337 0.0 2.0 0.00 0.00 0.00 54 1014.4
20260506173400 41 317 0.0 2.0 0.00 0.00 0.00 53 1014.4
20260506172822 41 355 0.0 2.0 0.00 0.00 0.00 54 1014.5
20260506172331 41 13 0.0 2.0 0.00 0.00 0.00 54 1014.5
20260506171847 41 337 0.0 1.0 0.00 0.00 0.00 54 1014.5
20260506171330 41 298 0.0 2.0 0.00 0.00 0.00 54 1014.6
20260506170829 41 302 0.0 2.0 0.00 0.00 0.00 54 1014.5
20260506170315 41 342 0.0 5.0 0.00 0.00 0.00 54 1014.7
20260506165838 41 5 0.0 5.0 0.00 0.00 0.00 54 1014.6
20260506165313 41 317 0.0 5.0 0.00 0.00 0.00 55 1014.7
20260506164850 41 15 0.0 4.0 0.00 0.00 0.00 54 1014.6
20260506164313 40 5 0.0 4.0 0.00 0.00 0.00 55 1014.6
20260506163821 40 309 0.0 4.0 0.00 0.00 0.00 55 1014.6
20260506163317 40 295 0.0 5.0 0.00 0.00 0.00 55 1014.7
20260506162820 40 327 0.0 2.0 0.00 0.00 0.00 55 1014.7
20260506162353 40 305 0.0 5.0 0.00 0.00 0.00 55 1014.7
20260506161819 40 292 0.0 4.0 0.00 0.00 0.00 55 1014.7
20260506161323 40 341 0.0 4.0 0.00 0.00 0.00 55 1014.7
20260506160842 40 5 0.0 6.0 0.00 0.00 0.00 55 1014.7
20260506160326 40 284 0.0 6.0 0.00 0.00 0.00 55 1014.6
20260506155837 40 335 0.0 6.0 0.00 0.00 0.00 54 1014.6
20260506155345 40 315 0.0 5.0 0.00 0.00 0.00 55 1014.6
20260506154822 40 298 0.0 5.0 0.00 0.00 0.00 55 1014.6
20260506154320 40 316 1.0 4.0 0.00 0.00 0.00 55 1014.6
20260506153818 40 329 1.0 4.0 0.00 0.00 0.00 55 1014.6
20260506153354 40 22 0.0 4.0 0.00 0.00 0.00 57 1014.6
20260506152835 40 24 0.0 4.0 0.00 0.00 0.00 56 1014.5
20260506152340 40 316 0.0 5.0 0.00 0.00 0.00 55 1014.5
20260506151815 40 306 0.0 5.0 0.00 0.00 0.00 56 1014.6
20260506151319 40 303 0.0 5.0 0.00 0.00 0.00 56 1014.6
20260506150836 40 299 0.0 2.0 0.00 0.00 0.00 56 1014.6
20260506150324 39 312 0.0 5.0 0.00 0.00 0.00 57 1014.5
20260506145826 39 53 0.0 5.0 0.00 0.00 0.00 56 1014.6
20260506145321 39 317 0.0 4.0 0.00 0.00 0.00 55 1014.6
20260506144838 39 282 0.0 2.0 0.00 0.00 0.00 57 1014.6
20260506144323 39 325 0.0 5.0 0.00 0.00 0.00 56 1014.5
20260506143901 39 337 0.0 2.0 0.00 0.00 0.00 57 1014.5
20260506143327 39 288 0.0 2.0 0.00 0.00 0.00 57 1014.6
20260506142821 39 360 0.0 4.0 0.00 0.00 0.00 57 1014.6
20260506142319 39 310 0.0 4.0 0.00 0.00 0.00 58 1014.6
20260506141823 39 360 0.0 2.0 0.00 0.00 0.00 57 1014.5
20260506141328 39 294 0.0 2.0 0.00 0.00 0.00 57 1014.5
20260506140844 39 319 0.0 2.0 0.00 0.00 0.00 57 1014.5
20260506140319 39 36 0.0 2.0 0.00 0.00 0.00 58 1014.5
20260506135818 39 274 0.0 2.0 0.00 0.00 0.00 58 1014.4
20260506135326 39 333 0.0 2.0 0.00 0.00 0.00 58 1014.3
20260506134822 39 301 0.0 4.0 0.00 0.00 0.00 58 1014.2
20260506134324 39 335 0.0 4.0 0.00 0.00 0.00 59 1014.2
20260506133832 39 329 0.0 4.0 0.00 0.00 0.00 59 1014.2
20260506133329 39 300 0.0 3.0 0.00 0.00 0.00 59 1014.3
20260506132830 39 314 0.0 1.0 0.00 0.00 0.00 59 1014.1
20260506132317 39 351 0.0 1.0 0.00 0.00 0.00 62 1014.0
20260506131813 38 323 0.0 1.0 0.00 0.00 0.00 61 1014.0
20260506131317 38 310 0.0 1.0 0.00 0.00 0.00 61 1013.9
20260506130824 38 321 0.0 1.0 0.00 0.00 0.00 62 1013.9
20260506130320 37 300 0.0 1.0 0.00 0.00 0.00 63 1013.8
20260506125823 37 331 0.0 1.0 0.00 0.00 0.00 64 1013.6
20260506125339 37 309 0.0 1.0 0.00 0.00 0.00 65 1013.7
20260506124827 36 300 0.0 2.0 0.00 0.00 0.00 66 1013.5
20260506124323 36 252 0.0 1.0 0.00 0.00 0.00 67 1013.5
20260506123819 35 327 0.0 1.0 0.00 0.00 0.00 68 1013.5
20260506123327 35 296 0.0 0.0 0.00 0.00 0.00 69 1013.6
20260506122829 35 301 0.0 0.0 0.00 0.00 0.00 70 1013.5
20260506122316 34 297 0.0 0.0 0.00 0.00 0.00 71 1013.5
20260506121833 34 318 0.0 0.0 0.00 0.00 0.00 73 1013.4
20260506121330 34 325 0.0 0.0 0.00 0.00 0.00 73 1013.4
20260506120838 33 283 0.0 0.0 0.00 0.00 0.00 74 1013.3
20260506120313 33 293 0.0 0.0 0.00 0.00 0.00 75 1013.3
20260506115815 32 294 0.0 0.0 0.00 0.00 0.00 75 1013.3
20260506115331 32 280 0.0 0.0 0.00 0.00 0.00 76 1013.2
20260506114818 32 273 0.0 0.0 0.00 0.00 0.00 76 1013.2
20260506114320 32 263 0.0 0.0 0.00 0.00 0.00 76 1013.1
20260506113835 32 282 0.0 0.0 0.00 0.00 0.00 75 1013.0
20260506113322 32 284 0.0 0.0 0.00 0.00 0.00 75 1013.0
20260506112826 32 297 0.0 0.0 0.00 0.00 0.00 75 1012.9
20260506112322 32 299 0.0 0.0 0.00 0.00 0.00 75 1013.0
20260506111829 32 252 0.0 0.0 0.00 0.00 0.00 75 1013.0
20260506111332 32 294 0.0 0.0 0.00 0.00 0.00 75 1013.0
20260506110829 32 294 0.0 0.0 0.00 0.00 0.00 75 1013.1
20260506110316 32 275 0.0 0.0 0.00 0.00 0.00 75 1013.1
20260506105828 32 275 0.0 0.0 0.00 0.00 0.00 74 1013.1
20260506105315 32 282 0.0 0.0 0.00 0.00 0.00 74 1013.0
20260506104832 32 296 0.0 0.0 0.00 0.00 0.00 74 1012.9
20260506104335 32 303 0.0 0.0 0.00 0.00 0.00 74 1012.9
20260506103822 32 297 0.0 0.0 0.00 0.00 0.00 73 1012.7
20260506103335 32 270 0.0 0.0 0.00 0.00 0.00 73 1012.6
20260506102837 32 265 0.0 0.0 0.00 0.00 0.00 73 1012.6
20260506102355 32 283 0.0 0.0 0.00 0.00 0.00 72 1012.5
20260506101821 32 301 0.0 0.0 0.00 0.00 0.00 72 1012.4
20260506101324 32 297 0.0 0.0 0.00 0.00 0.00 72 1012.5
20260506100841 32 296 0.0 0.0 0.00 0.00 0.00 71 1012.5
20260506100349 32 293 0.0 0.0 0.00 0.00 0.00 71 1012.4
20260506095832 32 308 0.0 0.0 0.00 0.00 0.00 70 1012.5
20260506095319 32 293 0.0 0.0 0.00 0.00 0.00 70 1012.5
20260506094836 32 281 0.0 0.0 0.00 0.00 0.00 70 1012.5
20260506094318 32 288 0.0 0.0 0.00 0.00 0.00 70 1012.6
20260506093834 33 292 0.0 0.0 0.00 0.00 0.00 70 1012.6
20260506093322 32 279 0.0 0.0 0.00 0.00 0.00 70 1012.5
20260506092824 32 277 0.0 0.0 0.00 0.00 0.00 70 1012.5
20260506092340 32 275 0.0 0.0 0.00 0.00 0.00 70 1012.6
20260506091828 32 266 0.0 0.0 0.00 0.00 0.00 70 1012.5
20260506091324 32 273 0.0 0.0 0.00 0.00 0.00 70 1012.4
20260506090820 32 268 0.0 0.0 0.00 0.00 0.00 70 1012.4
20260506090323 33 282 0.0 0.0 0.00 0.00 0.00 70 1012.4
20260506085826 33 288 0.0 0.0 0.00 0.00 0.00 69 1012.3
20260506085323 33 297 0.0 0.0 0.00 0.00 0.00 69 1012.2
20260506084839 33 298 0.0 0.0 0.00 0.00 0.00 69 1012.1
20260506084342 33 298 0.0 0.0 0.00 0.00 0.00 68 1012.0
20260506083829 33 298 0.0 0.0 0.00 0.00 0.00 68 1012.1
20260506083325 33 300 0.0 0.0 0.00 0.00 0.00 68 1012.2
20260506082825 33 301 0.0 0.0 0.00 0.00 0.00 68 1012.2
20260506082342 33 301 0.0 0.0 0.00 0.00 0.00 68 1012.3
20260506081850 33 302 0.0 0.0 0.00 0.00 0.00 68 1012.4
20260506081400 33 290 0.0 0.0 0.00 0.00 0.00 68 1012.3
20260506080823 33 327 0.0 0.0 0.00 0.00 0.00 68 1012.3
20260506080340 33 290 0.0 0.0 0.00 0.00 0.00 68 1012.3
20260506073323 34 295 0.0 0.0 0.00 0.00 0.00 67 1012.0
20260506072834 34 308 0.0 0.0 0.00 0.00 0.00 66 1011.9
20260506072321 34 309 0.0 0.0 0.00 0.00 0.00 66 1011.9
20260506071816 34 309 0.0 0.0 0.00 0.00 0.00 66 1011.9
20260506071340 34 310 0.0 0.0 0.00 0.00 0.00 66 1011.9
20260506070815 34 313 0.0 0.0 0.00 0.00 0.00 65 1012.0
20260506070323 34 317 0.0 0.0 0.00 0.00 0.00 65 1012.0
20260506062332 35 311 0.0 0.0 0.00 0.00 0.00 63 1012.0
20260506061830 36 315 0.0 0.0 0.00 0.00 0.00 62 1012.0
20260506061352 36 317 0.0 0.0 0.00 0.00 0.00 62 1012.0
20260506060819 36 320 0.0 0.0 0.00 0.00 0.00 62 1012.0
20260506060316 36 318 0.0 0.0 0.00 0.00 0.00 62 1012.0
20260506051341 37 311 0.0 0.0 0.00 0.00 0.00 59 1011.8
20260506050823 37 296 0.0 0.0 0.00 0.00 0.00 59 1011.7
20260506050320 37 325 0.0 0.0 0.00 0.00 0.00 59 1011.7
20260506044823 38 321 0.0 0.0 0.00 0.00 0.00 58 1011.6
20260506044338 38 327 0.0 0.0 0.00 0.00 0.00 58 1011.6
20260506043823 38 360 0.0 0.0 0.00 0.00 0.00 57 1011.6
20260506043320 38 306 0.0 1.0 0.00 0.00 0.00 57 1011.7